This demonstration page uses our WeatherBlox Daily Observations layout. Learn more.

Left ArrowRight Arrow

34.02893, -84.19858

Hourly Observations for June 8, 2022

Temp ( °F °C ) Dew Point ( °F °C ) Humidity (%) Winds ( mph kmh ) Pressure ( in mb ) Visibility ( mi km ) Precip ( " mm )
12:05 am 00:05 Cloudy with Nearby Thunderstorms 68 20 66 18.9 93 93 S 9 15 29.99 1016 8 13 0.01 0.25
12:48 am 00:48 Partly Cloudy with Light Rain 68 20 64 18 88 88 SW 8 13 29.95 1014 10 16 0.05 1.27
12:53 am 00:53 Partly Cloudy with Light Rain 68 20 66 18.9 93 93 WSW 7 11 29.94 1014 10 16 0.06 1.52
1:53 am 01:53 Clear 67 19.4 65 18.3 93 93 W 3 6 29.93 1014 10 16 0.00 0.00
2:53 am 02:53 Clear 66 18.9 65 18.3 96 96 N 3 6 29.92 1013 10 16 0.00 0.00
3:53 am 03:53 Clear 66 18.9 65 18.3 96 96 Calm 29.91 1013 10 16 0.00 0.00
4:53 am 04:53 Clear 66 18.9 65 18.3 96 96 Calm 29.92 1013 10 16 0.00 0.00
5:53 am 05:53 Clear 66 18.9 66 18.9 100 100 Calm 29.92 1013 10 16 0.00 0.00
6:53 am 06:53 Mostly Cloudy 67 19.4 67 19.4 100 100 Calm 29.94 1014 10 16 0.00 0.00
7:53 am 07:53 Sunny 68 20 67 19.4 96 96 Calm 29.95 1014 10 16 0.00 0.00
8:53 am 08:53 Sunny 70 21.1 68 20 93 93 Calm 29.97 1015 10 16 0.00 0.00
9:53 am 09:53 Partly Cloudy 72 22.2 68 20 87 87 Calm 29.98 1015 10 16 0.00 0.00
10:04 am 10:04 Mostly Cloudy 72 22.2 69 20.6 91 91 Calm 30.00 1016 10 16 0.00 0.00
10:53 am 10:53 Cloudy 72 22.2 69 20.6 91 91 W 5 7 29.99 1016 10 16 0.00 0.00
11:53 am 11:53 Cloudy 77 25 69 20.6 77 77 WSW 12 19 29.99 1016 10 16 0.00 0.00
12:53 pm 12:53 Cloudy 78 25.6 69 20.6 74 74 SSW 14 22 29.96 1015 10 16 0.00 0.00
1:00 pm 13:00 Partly Cloudy 78 25.6 68 20 71 71 SW 13 20 29.95 1014 10 16 0.00 0.00
1:53 pm 13:53 Mostly Cloudy 80 26.7 67 19.4 64 64 WSW 16 26 29.95 1014 10 16 0.00 0.00
2:53 pm 14:53 Mostly Sunny 83 28.3 68 20 61 61 SW 15 24 29.91 1013 10 16 0.00 0.00
3:53 pm 15:53 Sunny 83 28.3 68 20 61 61 undefined N/A 29.90 1012 10 16 0.00 0.00
4:53 pm 16:53 Partly Cloudy 83 28.3 69 20.6 63 63 WSW 12 19 29.88 1012 10 16 0.00 0.00
5:53 pm 17:53 Mostly Sunny 83 28.3 69 20.6 63 63 W 10 17 29.86 1011 10 16 0.00 0.00
6:53 pm 18:53 Sunny 83 28.3 70 21.1 65 65 WSW 10 17 29.85 1011 10 16 0.00 0.00
7:53 pm 19:53 Mostly Cloudy 82 27.8 70 21.1 67 67 WSW 9 15 29.86 1011 10 16 0.00 0.00
8:53 pm 20:53 Mostly Clear 80 26.7 71 21.7 74 74 SW 10 17 29.86 1011 10 16 0.00 0.00
9:53 pm 21:53 Mostly Cloudy 78 25.6 71 21.7 79 79 SW 10 17 29.88 1012 10 16 0.00 0.00
10:53 pm 22:53 Partly Cloudy 77 25 72 22.2 85 85 SW 7 11 29.88 1012 10 16 0.00 0.00
11:04 pm 23:04 Windy with Storms Likely 77 25 71 21.7 82 82 W 23 37 29.92 1013 2 3 0.11 2.79
11:12 pm 23:12 Mostly Clear with Strong Thunderstorms 71 21.7 68 20 90 90 WNW 16 26 29.91 1013 N/A 0.23 5.84
11:18 pm 23:18 Mostly Clear with Nearby Thunderstorms 72 22.2 68 20 87 87 W 18 30 29.92 1013 3 4 0.23 5.84
11:25 pm 23:25 Mostly Clear with Nearby Thunderstorms 73 22.8 68 20 84 84 W 13 20 29.90 1013 10 16 0.23 5.84
11:51 pm 23:51 Mostly Cloudy 73 23 68 20 83 83 W 8 13 29.89 1012 10 16 0.23 5.84
11:53 pm 23:53 Mostly Cloudy 72 22.2 68 20 87 87 W 8 13 29.88 1012 10 16 0.23 5.84

Powered by AerisWeather